Вернуться в каталог

CZ-3B DEB

LostHEO
NORAD 40844·DEBRIS·🇨🇳 China

Запущен Dec 19, 2011 с Xichang Satellite Launch Center

Loading…

Ближайшие Пролёты (ближайшие 24 часа)

TLE

УстаревшееSource: Space-Track

Эпоха: May 27, 2022, 13:27 UTC

1 40844U 11077Z   22147.56056962 -.00000329  00000-0  52200-3 0  9998
2 40844  23.0834   0.4248 7551615 236.1298  29.1831  1.82109207 48793

Отслеживайте CZ-3B DEB в реальном времени с AllMySat

Download on the App Store